Monett, MO

3:33 AM CDT on March 27, 2017 (GMT -0500)
Monett

Weather History for KHFJ - November, 2012

Change the Weather History Date:

Monday, November 19, 2012

  Actual Average (KJLN) Record (KJLN)
Temperature  
Mean Temperature 53 °F -  
Max Temperature 62 °F 56 °F 75 °F (1950)
Min Temperature 44 °F 38 °F 21 °F (1969)
Degree Days  
Heating Degree Days 12    
Growing Degree Days 3 (Base 50)    
Moisture  
Dew Point 43 °F    
Average Humidity 71    
Maximum Humidity 100    
Minimum Humidity 54    
Precipitation  
Precipitation 0.24 in - - ()
Sea Level Pressure  
Sea Level Pressure 30.17 in    
Wind  
Wind Speed 9 mph (South)    
Max Wind Speed 16 mph    
Max Gust Speed 20 mph    
Visibility 10 miles    
Events Rain    
Averages and records for this station are not official NWS values.
T = Trace of Precipitation, MM = Missing Value Source: NWS Daily Summary

Daily Weather History Graph

Daily Weather History Graph

Search for Another Location

Airport or City:

Trip Planner

Search our weather history database for the weather conditions in past years. The results will help you decide how hot, cold, wet, or windy it might be!

Date:

Astronomy

Nov. 19, 2012 Rise Set
Actual Time 6:59 AM CST 5:03 PM CST
Civil Twilight 6:31 AM CST 5:31 PM CST
Nautical Twilight 5:59 AM CST 6:03 PM CST
Astronomical Twilight 5:28 AM CST 6:34 PM CST
Moon 12:05 PM CST (11/19) 11:27 PM CST (11/19)
Length of Visible Light 11h 00m
Length of Day
10h 04m
Waxing Crescent, 41% of the Moon is Illuminated
Nov 19
Waxing Crescent
Nov 20
First Quarter
Nov 28
Full
Dec 6
Last Quarter
Dec 13
New

Hourly Weather History & Observations

Time (CST) Temp. Windchill Dew Point Humidity Pressure Visibility Wind Dir Wind Speed Gust Speed Precip Events Conditions
12:15 AM 51.8 °F - 35.6 °F 54% 30.21 in 10.0 mi SSE 6.9 mph - N/A   Clear
12:35 AM 50.0 °F - 35.6 °F 58% 30.21 in 10.0 mi SSE 8.1 mph - N/A   Clear
12:55 AM 50.0 °F - 35.6 °F 58% 30.20 in 10.0 mi SE 9.2 mph - N/A   Clear
1:15 AM 50.0 °F - 35.6 °F 58% 30.20 in 10.0 mi SSE 10.4 mph - N/A   Clear
1:35 AM 50.0 °F - 35.6 °F 58% 30.19 in 10.0 mi SSE 9.2 mph - N/A   Mostly Cloudy
1:55 AM 50.0 °F - 35.6 °F 58% 30.20 in 10.0 mi SSE 6.9 mph - N/A   Scattered Clouds
2:35 AM 51.8 °F - 35.6 °F 54% 30.20 in 10.0 mi SSE 9.2 mph - N/A   Overcast
2:55 AM 51.8 °F - 35.6 °F 54% 30.21 in 10.0 mi South 6.9 mph - N/A   Overcast
3:15 AM 51.8 °F - 35.6 °F 54% 30.22 in 10.0 mi South 8.1 mph - N/A Rain Light Rain
3:55 AM 48.2 °F - 41.0 °F 76% 30.23 in 10.0 mi South 11.5 mph 17.3 mph 0.01 in Rain Light Rain
4:15 AM 46.4 °F 41.5 °F 42.8 °F 87% 30.23 in 7.0 mi South 10.4 mph - 0.05 in Rain Rain
4:35 AM 46.4 °F 42.4 °F 42.8 °F 87% 30.22 in 10.0 mi South 8.1 mph - 0.11 in Rain Rain
4:55 AM 46.4 °F 41.5 °F 42.8 °F 87% 30.21 in 10.0 mi South 10.4 mph - 0.14 in Rain Light Rain
5:15 AM 46.4 °F 41.5 °F 44.6 °F 93% 30.21 in 10.0 mi SSE 10.4 mph - 0.02 in Rain Light Rain
5:35 AM 46.4 °F 41.9 °F 44.6 °F 93% 30.21 in 7.0 mi SSE 9.2 mph - 0.04 in Rain Light Rain
5:55 AM 46.4 °F 41.1 °F 44.6 °F 93% 30.20 in 7.0 mi SSE 11.5 mph - 0.06 in Rain Light Rain
6:15 AM 46.4 °F 41.1 °F 44.6 °F 93% 30.20 in 10.0 mi SSE 11.5 mph - 0.01 in   Drizzle
6:35 AM 44.6 °F 39.2 °F 44.6 °F 100% 30.20 in 10.0 mi SSE 10.4 mph - 0.02 in Rain Light Rain
6:55 AM 46.4 °F 41.9 °F 44.6 °F 93% 30.20 in 10.0 mi SSE 9.2 mph - 0.02 in Rain Rain
7:35 AM 46.4 °F 41.9 °F 44.6 °F 93% 30.20 in 10.0 mi SSE 9.2 mph - 0.01 in Rain Light Rain
7:55 AM 46.4 °F 41.5 °F 44.6 °F 93% 30.20 in 10.0 mi SSE 10.4 mph - 0.01 in   Overcast
8:15 AM 46.4 °F 42.4 °F 44.6 °F 93% 30.20 in 10.0 mi SSE 8.1 mph 17.3 mph N/A   Overcast
8:35 AM 48.2 °F - 44.6 °F 87% 30.20 in 10.0 mi SSE 9.2 mph - N/A   Overcast
8:55 AM 48.2 °F - 44.6 °F 87% 30.20 in 10.0 mi SSE 10.4 mph - N/A   Overcast
9:15 AM 50.0 °F - 44.6 °F 82% 30.20 in 10.0 mi SSE 8.1 mph - N/A   Overcast
9:35 AM 50.0 °F - 44.6 °F 82% 30.20 in 10.0 mi SSE 9.2 mph - N/A   Overcast
9:55 AM 51.8 °F - 44.6 °F 76% 30.20 in 10.0 mi South 9.2 mph - N/A   Overcast
10:15 AM 53.6 °F - 42.8 °F 67% 30.20 in 10.0 mi South 11.5 mph 16.1 mph N/A   Overcast
10:35 AM 55.4 °F - 42.8 °F 63% 30.19 in 10.0 mi South 11.5 mph 18.4 mph N/A   Overcast
10:55 AM 57.2 °F - 42.8 °F 59% 30.19 in 10.0 mi South 10.4 mph - N/A   Overcast
11:15 AM 55.4 °F - 42.8 °F 63% 30.19 in 10.0 mi South 12.7 mph - N/A   Overcast
11:35 AM 59.0 °F - 44.6 °F 59% 30.18 in 10.0 mi South 12.7 mph - N/A   Mostly Cloudy
11:55 AM 59.0 °F - 44.6 °F 59% 30.17 in 10.0 mi South 16.1 mph - N/A   Mostly Cloudy
12:15 PM 59.0 °F - 44.6 °F 59% 30.17 in 10.0 mi SSW 11.5 mph - N/A   Overcast
12:35 PM 60.8 °F - 44.6 °F 55% 30.15 in 10.0 mi SSW 12.7 mph - N/A   Overcast
12:55 PM 60.8 °F - 44.6 °F 55% 30.14 in 10.0 mi SSW 12.7 mph 19.6 mph N/A   Scattered Clouds
1:15 PM 60.8 °F - 44.6 °F 55% 30.14 in 10.0 mi South 10.4 mph - N/A   Clear
1:35 PM 60.8 °F - 44.6 °F 55% 30.13 in 10.0 mi SW 9.2 mph - N/A   Clear
1:55 PM 62.6 °F - 46.4 °F 55% 30.12 in 10.0 mi South 11.5 mph - N/A   Clear
2:15 PM 62.6 °F - 46.4 °F 55% 30.12 in 10.0 mi SSW 10.4 mph - N/A   Clear
2:35 PM 62.6 °F - 46.4 °F 55% 30.12 in 10.0 mi SSW 10.4 mph - N/A   Clear
2:55 PM 62.6 °F - 46.4 °F 55% 30.11 in 10.0 mi SSW 10.4 mph - N/A   Clear
3:15 PM 62.6 °F - 46.4 °F 55% 30.10 in 10.0 mi SSW 10.4 mph - N/A   Clear
3:35 PM 62.6 °F - 46.4 °F 55% 30.11 in 10.0 mi SSW 9.2 mph - N/A   Clear
3:55 PM 62.6 °F - 46.4 °F 55% 30.12 in 10.0 mi SSW 10.4 mph - N/A   Clear
4:15 PM 60.8 °F - 46.4 °F 59% 30.12 in 10.0 mi South 10.4 mph - N/A   Clear
4:35 PM 59.0 °F - 46.4 °F 63% 30.12 in 10.0 mi SSW 9.2 mph - N/A   Clear
4:55 PM 59.0 °F - 46.4 °F 63% 30.12 in 10.0 mi South 5.8 mph - N/A   Clear
5:15 PM 57.2 °F - 46.4 °F 67% 30.12 in 10.0 mi SSW 4.6 mph - N/A   Clear
5:35 PM 55.4 °F - 46.4 °F 72% 30.13 in 10.0 mi South 5.8 mph - N/A   Clear
5:55 PM 53.6 °F - 44.6 °F 72% 30.12 in 10.0 mi South 8.1 mph - N/A   Clear
6:15 PM 53.6 °F - 44.6 °F 72% 30.14 in 10.0 mi South 6.9 mph - N/A   Clear
6:35 PM 53.6 °F - 44.6 °F 72% 30.14 in 10.0 mi South 3.5 mph - N/A   Clear
6:55 PM 53.6 °F - 44.6 °F 72% 30.15 in 10.0 mi South 5.8 mph - N/A   Clear
7:15 PM 51.8 °F - 44.6 °F 76% 30.15 in 10.0 mi South 6.9 mph - N/A   Clear
7:55 PM 51.8 °F - 44.6 °F 76% 30.15 in 10.0 mi South 6.9 mph - N/A   Clear
8:15 PM 51.8 °F - 44.6 °F 76% 30.15 in 10.0 mi South 5.8 mph - N/A   Clear
8:35 PM 51.8 °F - 44.6 °F 76% 30.15 in 10.0 mi South 5.8 mph - N/A   Clear
8:55 PM 50.0 °F - 44.6 °F 82% 30.15 in 10.0 mi South 6.9 mph - N/A   Clear
9:35 PM 50.0 °F - 42.8 °F 76% 30.15 in 10.0 mi South 6.9 mph - N/A   Clear
9:55 PM 50.0 °F - 42.8 °F 76% 30.15 in 10.0 mi SSW 6.9 mph - N/A   Clear
10:15 PM 50.0 °F - 42.8 °F 76% 30.15 in 10.0 mi SSW 6.9 mph - N/A   Clear
10:35 PM 48.2 °F - 42.8 °F 82% 30.14 in 10.0 mi SSW 6.9 mph - N/A   Clear
10:55 PM 48.2 °F - 42.8 °F 82% 30.15 in 10.0 mi SSW 5.8 mph - N/A   Clear
11:15 PM 46.4 °F 42.9 °F 42.8 °F 87% 30.15 in 10.0 mi SSW 6.9 mph - N/A   Clear
11:35 PM 46.4 °F 42.9 °F 42.8 °F 87% 30.14 in 10.0 mi SSW 6.9 mph - N/A   Clear
11:55 PM 46.4 °F 42.4 °F 42.8 °F 87% 30.15 in 10.0 mi SSW 8.1 mph - N/A   Clear